Location: Unspecified
(35.6961°N, 0.0000°E)
Time: 21:24:08
(UTC+00:00)

S-56A Canister/Altair - Pass Details

Date: 30 May 2019
Orbit: 633 x 2499 km, 38.9° (Epoch: 17 June)

Event Time Altitude Azimuth Distance (km) Brightness Sun altitude
Rises 21:57:04 0° 223° (SW) 2,914 - -25.8°
Reaches altitude 10° 21:59:25 10° 215° (SW) 2,004 - -26.0°
Maximum altitude 22:03:29 36° 147° (SSE) 1,060 - -26.4°
Drops below altitude 10° 22:08:14 10° 81° (E) 2,343 - -26.9°
Sets 22:11:12 0° 74° (ENE) 3,491 - -27.2°
